EJA1436 KASE-KSDL

Flight info

Callsign EJA1436
Flight time 1h 28m
Altitude 40000
Route LINDZ1 LINDZ JNC LJAYY DSERT2
Aircraft E35L/M-SDFGIRWXY/SB1

Departure

Time 2026-05-04 19:30
Airport Aspen-Pitkin County Airport (Sardy Field) (KASE)

Arrival

Time 2026-05-04 20:58
Airport Scottsdale Airport (KSDL)
Time Latitude Longitude Altitude Speed Heading
2026-05-04 19:15 39.22194 -106.86601 7792 ft 0 kts 250°
2026-05-04 19:26 39.22166 -106.86674 7789 ft 12 kts 212°
2026-05-04 19:26 39.22088 -106.86652 7795 ft 12 kts 159°
2026-05-04 19:26 39.21980 -106.86601 7803 ft 19 kts 160°
2026-05-04 19:27 39.21843 -106.86537 7813 ft 19 kts 158°
2026-05-04 19:27 39.21728 -106.86481 7822 ft 16 kts 159°
2026-05-04 19:27 39.21634 -106.86437 7828 ft 13 kts 160°
2026-05-04 19:27 39.21542 -106.86395 7834 ft 17 kts 160°
2026-05-04 19:28 39.21401 -106.86328 7843 ft 23 kts 159°
2026-05-04 19:28 39.21267 -106.86262 7851 ft 17 kts 160°
2026-05-04 19:28 39.21182 -106.86276 7853 ft 11 kts 242°
2026-05-04 19:28 39.21185 -106.86346 7849 ft 3 kts 336°
2026-05-04 19:29 39.21186 -106.86347 7849 ft 0 kts 337°
2026-05-04 19:29 39.21504 -106.86498 7830 ft 97 kts 340°
2026-05-04 19:29 39.22397 -106.86927 7802 ft 170 kts 340°
2026-05-04 19:29 39.23640 -106.87480 8149 ft 210 kts 341°
2026-05-04 19:30 39.25113 -106.88352 8463 ft 254 kts 327°
2026-05-04 19:30 39.26793 -106.89403 9016 ft 284 kts 346°
2026-05-04 19:30 39.28769 -106.89880 9691 ft 301 kts 342°
2026-05-04 19:30 39.30502 -106.91322 10787 ft 301 kts 311°
2026-05-04 19:31 39.31473 -106.93634 12094 ft 301 kts 284°
2026-05-04 19:31 39.31927 -106.96238 13390 ft 303 kts 281°
2026-05-04 19:31 39.32393 -106.98922 14410 ft 314 kts 281°
2026-05-04 19:31 39.32862 -107.01657 15434 ft 323 kts 281°
2026-05-04 19:32 39.33348 -107.04514 16617 ft 327 kts 281°
2026-05-04 19:32 39.33845 -107.07378 17760 ft 331 kts 284°
2026-05-04 19:32 39.34843 -107.09974 18732 ft 340 kts 306°
2026-05-04 19:32 39.36410 -107.12260 19825 ft 344 kts 309°
2026-05-04 19:33 39.37783 -107.14724 20810 ft 344 kts 292°
2026-05-04 19:33 39.38330 -107.17701 21817 ft 344 kts 271°
2026-05-04 19:33 39.37958 -107.20737 22893 ft 344 kts 255°
2026-05-04 19:33 39.37343 -107.23712 23833 ft 349 kts 257°
2026-05-04 19:34 39.36756 -107.26717 24878 ft 350 kts 257°
2026-05-04 19:34 39.36159 -107.29781 25879 ft 352 kts 258°
2026-05-04 19:34 39.35571 -107.32796 27076 ft 346 kts 258°
2026-05-04 19:34 39.34994 -107.35746 28364 ft 337 kts 258°
2026-05-04 19:35 39.34436 -107.38602 29637 ft 328 kts 259°
2026-05-04 19:35 39.33889 -107.41399 30742 ft 320 kts 258°
2026-05-04 19:35 39.33359 -107.44097 31840 ft 311 kts 259°
2026-05-04 19:35 39.32837 -107.46757 32956 ft 301 kts 260°
2026-05-04 19:36 39.32325 -107.49361 34014 ft 293 kts 260°
2026-05-04 19:36 39.31832 -107.51862 34987 ft 288 kts 259°
2026-05-04 19:36 39.31340 -107.54359 35885 ft 284 kts 259°
2026-05-04 19:36 39.30857 -107.56810 36713 ft 282 kts 259°
2026-05-04 19:37 39.30368 -107.59279 37439 ft 281 kts 259°
2026-05-04 19:37 39.29888 -107.61714 38189 ft 279 kts 258°
2026-05-04 19:37 39.29414 -107.64103 38935 ft 277 kts 258°
2026-05-04 19:37 39.28949 -107.66450 39554 ft 278 kts 258°
2026-05-04 19:38 39.28461 -107.68909 40179 ft 279 kts 258°
2026-05-04 19:38 39.27963 -107.71418 40257 ft 294 kts 257°
2026-05-04 19:38 39.27437 -107.74062 40279 ft 309 kts 258°
2026-05-04 19:38 39.26891 -107.76806 40273 ft 325 kts 258°
2026-05-04 19:39 39.26320 -107.79670 40261 ft 340 kts 257°
2026-05-04 19:39 39.25708 -107.82732 40268 ft 354 kts 258°
2026-05-04 19:39 39.25083 -107.85856 40270 ft 368 kts 257°
2026-05-04 19:39 39.24433 -107.89094 40257 ft 379 kts 257°
2026-05-04 19:40 39.23781 -107.92336 40233 ft 365 kts 258°
2026-05-04 19:40 39.23156 -107.95443 40226 ft 351 kts 257°
2026-05-04 19:40 39.22552 -107.98443 40223 ft 338 kts 257°
2026-05-04 19:41 39.21392 -108.04195 40232 ft 331 kts 257°
2026-05-04 19:41 39.20240 -108.09891 40217 ft 329 kts 257°
2026-05-04 19:42 39.19081 -108.15604 40187 ft 327 kts 257°
2026-05-04 19:42 39.17936 -108.21233 40189 ft 325 kts 257°
2026-05-04 19:43 39.16789 -108.26860 40150 ft 324 kts 257°
2026-05-04 19:43 39.15644 -108.32455 40145 ft 321 kts 258°
2026-05-04 19:44 39.14508 -108.37999 40110 ft 320 kts 257°
2026-05-04 19:44 39.13373 -108.43515 40099 ft 318 kts 257°
2026-05-04 19:45 39.12239 -108.49023 40075 ft 317 kts 257°
2026-05-04 19:45 39.11113 -108.54472 40069 ft 315 kts 256°
2026-05-04 19:46 39.09983 -108.59921 40065 ft 313 kts 257°
2026-05-04 19:46 39.08863 -108.65311 40085 ft 311 kts 257°
2026-05-04 19:47 39.07736 -108.70726 40114 ft 311 kts 257°
2026-05-04 19:47 39.06468 -108.76023 40139 ft 313 kts 249°
2026-05-04 19:47 39.05306 -108.78436 40134 ft 319 kts 238°
2026-05-04 19:48 39.03751 -108.80524 40131 ft 329 kts 229°
2026-05-04 19:48 39.01851 -108.82191 40128 ft 340 kts 219°
2026-05-04 19:48 38.99636 -108.83450 40141 ft 347 kts 215°
2026-05-04 19:49 38.95290 -108.86028 40128 ft 343 kts 218°
2026-05-04 19:49 38.91016 -108.88701 40132 ft 342 kts 218°
2026-05-04 19:50 38.86698 -108.91419 40145 ft 342 kts 217°
2026-05-04 19:50 38.82416 -108.94112 40137 ft 342 kts 218°
2026-05-04 19:51 38.78169 -108.96782 40133 ft 342 kts 218°
2026-05-04 19:51 38.73854 -108.99490 40115 ft 342 kts 219°
2026-05-04 19:52 38.69590 -109.02163 40139 ft 341 kts 218°
2026-05-04 19:52 38.65311 -109.04842 40129 ft 340 kts 218°
2026-05-04 19:53 38.61057 -109.07502 40131 ft 340 kts 219°
2026-05-04 19:53 38.56793 -109.10162 40147 ft 339 kts 219°
2026-05-04 19:54 38.52567 -109.12799 40146 ft 338 kts 218°
2026-05-04 19:54 38.48344 -109.15427 40154 ft 337 kts 218°
2026-05-04 19:55 38.44165 -109.18027 40162 ft 336 kts 218°
2026-05-04 19:55 38.39951 -109.20644 40158 ft 336 kts 219°
2026-05-04 19:56 38.35766 -109.23241 40172 ft 336 kts 219°
2026-05-04 19:56 38.31565 -109.25844 40148 ft 337 kts 219°
2026-05-04 19:57 38.27333 -109.28462 40151 ft 336 kts 219°
2026-05-04 19:57 38.23132 -109.31057 40140 ft 336 kts 219°
2026-05-04 19:58 38.18926 -109.33652 40141 ft 336 kts 220°
2026-05-04 19:58 38.14713 -109.36248 40121 ft 336 kts 219°
2026-05-04 19:59 38.10504 -109.38838 40149 ft 335 kts 219°
2026-05-04 19:59 38.06284 -109.41434 40142 ft 335 kts 219°
2026-05-04 20:00 38.02082 -109.44012 40149 ft 332 kts 219°
2026-05-04 20:00 37.97948 -109.46546 40147 ft 330 kts 219°
2026-05-04 20:01 37.93812 -109.49079 40142 ft 327 kts 220°
2026-05-04 20:01 37.89720 -109.51581 40140 ft 326 kts 220°
2026-05-04 20:02 37.85615 -109.54090 40155 ft 323 kts 220°
2026-05-04 20:02 37.81565 -109.56560 40143 ft 322 kts 220°
2026-05-04 20:03 37.77523 -109.59024 40159 ft 320 kts 220°
2026-05-04 20:03 37.73523 -109.61457 40149 ft 319 kts 220°
2026-05-04 20:04 37.69544 -109.63876 40135 ft 318 kts 220°
2026-05-04 20:04 37.65555 -109.66299 40168 ft 317 kts 220°
2026-05-04 20:05 37.61575 -109.68713 40161 ft 319 kts 220°
2026-05-04 20:05 37.57542 -109.71155 40146 ft 320 kts 220°
2026-05-04 20:06 37.53523 -109.73587 40160 ft 321 kts 220°
2026-05-04 20:06 37.49493 -109.76021 40144 ft 321 kts 220°
2026-05-04 20:07 37.45457 -109.78457 40157 ft 322 kts 219°
2026-05-04 20:07 37.41423 -109.80888 40161 ft 322 kts 220°
2026-05-04 20:08 37.37351 -109.83340 40151 ft 323 kts 219°
2026-05-04 20:08 37.33288 -109.85784 40156 ft 323 kts 220°
2026-05-04 20:09 37.29240 -109.88215 40150 ft 323 kts 219°
2026-05-04 20:09 37.25199 -109.90639 40148 ft 323 kts 219°
2026-05-04 20:10 37.21128 -109.93077 40152 ft 322 kts 220°
2026-05-04 20:10 37.17086 -109.95496 40149 ft 323 kts 220°
2026-05-04 20:11 37.13013 -109.97930 40136 ft 324 kts 221°
2026-05-04 20:11 37.08927 -110.00371 40148 ft 324 kts 220°
2026-05-04 20:12 37.04857 -110.02797 40131 ft 325 kts 219°
2026-05-04 20:12 37.00764 -110.05235 40134 ft 325 kts 220°
2026-05-04 20:13 36.96682 -110.07663 40134 ft 325 kts 221°
2026-05-04 20:13 36.92582 -110.10099 40131 ft 325 kts 219°
2026-05-04 20:14 36.88486 -110.12530 40135 ft 325 kts 221°
2026-05-04 20:14 36.84349 -110.14981 40143 ft 325 kts 220°
2026-05-04 20:15 36.80242 -110.17413 40152 ft 325 kts 220°
2026-05-04 20:15 36.76143 -110.19837 40163 ft 325 kts 219°
2026-05-04 20:16 36.72021 -110.22271 40168 ft 326 kts 220°
2026-05-04 20:16 36.67922 -110.24689 40168 ft 326 kts 221°
2026-05-04 20:17 36.63962 -110.27022 40148 ft 326 kts 220°
2026-05-04 20:17 36.59861 -110.29437 40167 ft 326 kts 219°
2026-05-04 20:18 36.55746 -110.31855 40176 ft 326 kts 220°
2026-05-04 20:18 36.51625 -110.34274 40170 ft 326 kts 220°
2026-05-04 20:19 36.47498 -110.36695 40168 ft 327 kts 220°
2026-05-04 20:19 36.43382 -110.39106 40175 ft 327 kts 220°
2026-05-04 20:20 36.39281 -110.41505 40097 ft 328 kts 220°
2026-05-04 20:20 36.37196 -110.42725 39499 ft 332 kts 220°
2026-05-04 20:20 36.35100 -110.43951 38861 ft 334 kts 219°
2026-05-04 20:20 36.33011 -110.45170 38211 ft 335 kts 219°
2026-05-04 20:21 36.30888 -110.46408 37577 ft 336 kts 220°
2026-05-04 20:21 36.28796 -110.47628 36963 ft 337 kts 219°
2026-05-04 20:21 36.24535 -110.50110 35740 ft 338 kts 218°
2026-05-04 20:22 36.22409 -110.51347 35129 ft 339 kts 218°
2026-05-04 20:22 36.20271 -110.52591 34516 ft 339 kts 218°
2026-05-04 20:22 36.18145 -110.53826 34167 ft 333 kts 217°
2026-05-04 20:22 36.16056 -110.55039 34168 ft 332 kts 218°
2026-05-04 20:23 36.12125 -110.57321 34170 ft 332 kts 218°
2026-05-04 20:23 36.10037 -110.58534 34170 ft 332 kts 218°
2026-05-04 20:24 36.05826 -110.60975 34177 ft 332 kts 218°
2026-05-04 20:24 36.01635 -110.63400 34175 ft 332 kts 218°
2026-05-04 20:25 35.97440 -110.65825 34195 ft 333 kts 218°
2026-05-04 20:25 35.93203 -110.68274 34198 ft 337 kts 217°
2026-05-04 20:26 35.88910 -110.70750 34194 ft 341 kts 217°
2026-05-04 20:26 35.84556 -110.73257 34189 ft 344 kts 217°
2026-05-04 20:27 35.80214 -110.75757 34190 ft 346 kts 217°
2026-05-04 20:27 35.75808 -110.78288 34191 ft 348 kts 217°
2026-05-04 20:28 35.71406 -110.80814 34180 ft 350 kts 217°
2026-05-04 20:28 35.66995 -110.83343 34183 ft 352 kts 217°
2026-05-04 20:29 35.62516 -110.85908 34178 ft 353 kts 217°
2026-05-04 20:29 35.58037 -110.88469 34178 ft 354 kts 217°
2026-05-04 20:30 35.53599 -110.91004 34176 ft 355 kts 216°
2026-05-04 20:30 35.49107 -110.93565 34171 ft 355 kts 216°
2026-05-04 20:31 35.44559 -110.96157 34176 ft 356 kts 217°
2026-05-04 20:31 35.40138 -110.98875 34166 ft 345 kts 224°
2026-05-04 20:32 35.36476 -111.02492 34162 ft 339 kts 228°
2026-05-04 20:32 35.32801 -111.06136 34162 ft 337 kts 227°
2026-05-04 20:33 35.29162 -111.09724 34166 ft 334 kts 229°
2026-05-04 20:33 35.25547 -111.13281 34165 ft 333 kts 228°
2026-05-04 20:34 35.21953 -111.16812 34163 ft 331 kts 228°
2026-05-04 20:34 35.18382 -111.20319 34171 ft 329 kts 227°
2026-05-04 20:35 35.14796 -111.23834 34163 ft 328 kts 227°
2026-05-04 20:35 35.11252 -111.27306 34167 ft 326 kts 227°
2026-05-04 20:36 35.07619 -111.30644 33992 ft 338 kts 220°
2026-05-04 20:36 35.05463 -111.31908 33833 ft 346 kts 216°
2026-05-04 20:36 35.03281 -111.33138 33765 ft 346 kts 217°
2026-05-04 20:37 34.98893 -111.35644 33195 ft 357 kts 216°
2026-05-04 20:37 34.96550 -111.36982 32661 ft 366 kts 216°
2026-05-04 20:37 34.94228 -111.38307 32139 ft 373 kts 216°
2026-05-04 20:38 34.91872 -111.39651 31615 ft 379 kts 215°
2026-05-04 20:38 34.89447 -111.41033 31092 ft 383 kts 214°
2026-05-04 20:38 34.86996 -111.42429 30573 ft 385 kts 214°
2026-05-04 20:38 34.84554 -111.43818 30048 ft 379 kts 213°
2026-05-04 20:39 34.82134 -111.45195 29499 ft 374 kts 214°
2026-05-04 20:39 34.79793 -111.46527 28955 ft 369 kts 213°
2026-05-04 20:39 34.77443 -111.47863 28405 ft 365 kts 213°
2026-05-04 20:39 34.75151 -111.49166 27857 ft 362 kts 213°
2026-05-04 20:40 34.72898 -111.50446 27320 ft 359 kts 213°
2026-05-04 20:40 34.70617 -111.51740 26772 ft 357 kts 213°
2026-05-04 20:40 34.68385 -111.53007 26216 ft 355 kts 213°
2026-05-04 20:40 34.66170 -111.54263 25640 ft 355 kts 212°
2026-05-04 20:41 34.63921 -111.55537 25056 ft 354 kts 212°
2026-05-04 20:41 34.61655 -111.56819 24459 ft 354 kts 212°
2026-05-04 20:41 34.59424 -111.58082 23869 ft 353 kts 212°
2026-05-04 20:41 34.57201 -111.59340 23287 ft 353 kts 212°
2026-05-04 20:42 34.54969 -111.60600 22709 ft 353 kts 211°
2026-05-04 20:42 34.52760 -111.61847 22138 ft 350 kts 212°
2026-05-04 20:42 34.50560 -111.63089 21563 ft 347 kts 212°
2026-05-04 20:42 34.48389 -111.64314 21000 ft 345 kts 212°
2026-05-04 20:43 34.46202 -111.65547 20435 ft 342 kts 211°
2026-05-04 20:43 34.44098 -111.66894 19872 ft 334 kts 221°
2026-05-04 20:43 34.42339 -111.68707 19387 ft 328 kts 225°
2026-05-04 20:43 34.40604 -111.70532 18876 ft 326 kts 225°
2026-05-04 20:44 34.38905 -111.72323 18371 ft 324 kts 225°
2026-05-04 20:44 34.37186 -111.74130 17866 ft 323 kts 226°
2026-05-04 20:44 34.35485 -111.75921 17356 ft 322 kts 225°
2026-05-04 20:44 34.33802 -111.77691 16854 ft 320 kts 225°
2026-05-04 20:45 34.32114 -111.79466 16353 ft 318 kts 225°
2026-05-04 20:45 34.30459 -111.81204 15851 ft 316 kts 224°
2026-05-04 20:45 34.28800 -111.82946 15332 ft 314 kts 224°
2026-05-04 20:45 34.27159 -111.84668 14822 ft 311 kts 224°
2026-05-04 20:46 34.25521 -111.86385 14245 ft 307 kts 224°
2026-05-04 20:46 34.23918 -111.88065 13655 ft 303 kts 223°
2026-05-04 20:46 34.22338 -111.89721 12990 ft 300 kts 223°
2026-05-04 20:46 34.20771 -111.91356 12297 ft 298 kts 221°
2026-05-04 20:47 34.18948 -111.92506 11703 ft 299 kts 199°
2026-05-04 20:47 34.16981 -111.93107 11116 ft 289 kts 198°
2026-05-04 20:47 34.15100 -111.93685 10589 ft 266 kts 197°
2026-05-04 20:47 34.13370 -111.94218 10090 ft 249 kts 197°
2026-05-04 20:48 34.11725 -111.94725 9592 ft 237 kts 197°
2026-05-04 20:48 34.10182 -111.95200 9549 ft 227 kts 197°
2026-05-04 20:48 34.08587 -111.95695 9562 ft 244 kts 197°
2026-05-04 20:48 34.06900 -111.96214 9582 ft 256 kts 197°
2026-05-04 20:49 34.05130 -111.96758 9491 ft 270 kts 197°
2026-05-04 20:49 34.03259 -111.97332 9440 ft 280 kts 197°
2026-05-04 20:49 34.01372 -111.97911 9228 ft 281 kts 197°
2026-05-04 20:49 33.99482 -111.98492 8725 ft 278 kts 196°
2026-05-04 20:50 33.97597 -111.99070 8294 ft 273 kts 195°
2026-05-04 20:50 33.95780 -111.99627 7915 ft 267 kts 195°
2026-05-04 20:50 33.93957 -112.00185 7537 ft 263 kts 195°
2026-05-04 20:50 33.92182 -112.00729 7144 ft 261 kts 194°
2026-05-04 20:51 33.90409 -112.01273 6657 ft 262 kts 194°
2026-05-04 20:51 33.88628 -112.01817 6216 ft 262 kts 193°
2026-05-04 20:51 33.86827 -112.02358 5720 ft 257 kts 189°
2026-05-04 20:51 33.85127 -112.02218 5351 ft 232 kts 162°
2026-05-04 20:52 33.83668 -112.01523 4924 ft 219 kts 158°
2026-05-04 20:52 33.82264 -112.00809 4543 ft 209 kts 158°
2026-05-04 20:52 33.81043 -112.00175 4156 ft 178 kts 158°
2026-05-04 20:52 33.80006 -111.99635 4065 ft 154 kts 158°
2026-05-04 20:53 33.78960 -111.99090 4108 ft 169 kts 158°
2026-05-04 20:53 33.77835 -111.98503 4099 ft 176 kts 158°
2026-05-04 20:53 33.76702 -111.97911 4087 ft 176 kts 158°
2026-05-04 20:53 33.75584 -111.97327 4085 ft 172 kts 158°
2026-05-04 20:54 33.74500 -111.96761 4079 ft 166 kts 158°
2026-05-04 20:54 33.73627 -111.95879 4080 ft 165 kts 127°
2026-05-04 20:54 33.72983 -111.94745 4085 ft 165 kts 127°
2026-05-04 20:54 33.72333 -111.93604 4086 ft 166 kts 127°
2026-05-04 20:55 33.71670 -111.92431 4088 ft 168 kts 126°
2026-05-04 20:55 33.71011 -111.91264 4091 ft 169 kts 127°
2026-05-04 20:55 33.70365 -111.90117 3870 ft 160 kts 127°
2026-05-04 20:55 33.69764 -111.89052 3596 ft 147 kts 127°
2026-05-04 20:56 33.69191 -111.88073 3347 ft 139 kts 129°
2026-05-04 20:56 33.68390 -111.87326 3188 ft 151 kts 159°
2026-05-04 20:56 33.67342 -111.87078 3038 ft 151 kts 175°
2026-05-04 20:56 33.66345 -111.87129 2798 ft 143 kts 194°
2026-05-04 20:57 33.65440 -111.87571 2398 ft 139 kts 213°
2026-05-04 20:57 33.64685 -111.88291 2082 ft 139 kts 222°
2026-05-04 20:57 33.63988 -111.89086 1846 ft 134 kts 224°
2026-05-04 20:57 33.63324 -111.89857 1620 ft 128 kts 224°
2026-05-04 20:58 33.62707 -111.90567 1517 ft 110 kts 224°
2026-05-04 20:58 33.62253 -111.91096 1515 ft 62 kts 224°
2026-05-04 20:58 33.62088 -111.91287 1514 ft 12 kts 228°
2026-05-04 20:58 33.62096 -111.91327 1514 ft 5 kts 339°
2026-05-04 20:59 33.62143 -111.91331 1514 ft 5 kts
2026-05-04 20:59 33.62183 -111.91288 1514 ft 12 kts 44°
2026-05-04 20:59 33.62242 -111.91221 1514 ft 6 kts 37°
2026-05-04 20:59 33.62274 -111.91228 1514 ft 6 kts 317°
2026-05-04 21:00 33.62310 -111.91270 1514 ft 4 kts 315°
2026-05-04 21:00 33.62334 -111.91305 1514 ft 6 kts 280°
2026-05-04 21:00 33.62299 -111.91355 1514 ft 7 kts 225°
2026-05-04 21:00 33.62263 -111.91365 1514 ft 6 kts 134°
2026-05-04 21:01 33.62259 -111.91360 1514 ft 0 kts 133°